| time (UTC) | temp F | wind direction | speed knots | gust knots | rain 1hr in | rain 24hr in | rain mn in | humidity % | barometer mb |
| 20260504110349 | 61 | 235 | 1.7 | 2.6 | 0.00 | 0.00 | 0.00 | 92 | 1016.3 |
| 20260504100349 | 66 | 223 | 0.9 | 1.7 | 0.00 | 0.00 | 0.00 | 84 | 1015.4 |
| 20260504080348 | 67 | 51 | 8.7 | 13.0 | 0.00 | 0.00 | 0.00 | 84 | 1013.3 |
| 20260504070348 | 68 | 53 | 7.8 | 10.4 | 0.00 | 0.00 | 0.00 | 83 | 1012.8 |
| 20260504050348 | 67 | 51 | 6.1 | 10.4 | 0.00 | 0.00 | 0.00 | 84 | 1012.5 |
| 20260504043348 | 67 | 48 | 7.0 | 12.2 | 0.00 | 0.00 | 0.00 | 85 | 1012.8 |
| 20260504040347 | 67 | 35 | 7.0 | 17.4 | 0.00 | 0.00 | 0.00 | 87 | 1012.8 |
| 20260504033347 | 67 | 41 | 8.7 | 17.4 | 0.00 | 0.00 | 0.00 | 86 | 1013.2 |
| 20260504030349 | 66 | 44 | 4.3 | 7.8 | 0.00 | 0.00 | 0.00 | 88 | 1013.9 |
| 20260504023346 | 66 | 34 | 7.0 | 10.4 | 0.00 | 0.00 | 0.00 | 88 | 1014.0 |
| 20260504020346 | 65 | 43 | 8.7 | 14.8 | 0.00 | 0.00 | 0.00 | 90 | 1014.3 |
| 20260504013346 | 64 | 47 | 7.0 | 10.4 | 0.00 | 0.00 | 0.00 | 91 | 1015.0 |
| 20260504010346 | 64 | 27 | 1.7 | 2.6 | 0.00 | 0.00 | 0.00 | 92 | 1016.1 |
| 20260504003346 | 65 | 28 | 6.1 | 10.4 | 0.00 | 0.00 | 0.00 | 88 | 1016.4 |
| 20260504000346 | 65 | 1 | 5.2 | 7.0 | 0.00 | 0.00 | 0.00 | 85 | 1016.0 |
| 20260503233349 | 65 | 67 | 4.3 | 8.7 | 0.00 | 0.00 | 0.00 | 88 | 1016.0 |
| 20260503230349 | 65 | 101 | 2.6 | 5.2 | 0.00 | 0.00 | 0.00 | 89 | 1016.2 |
| 20260503223349 | 67 | 75 | 1.7 | 2.6 | 0.00 | 0.00 | 0.00 | 85 | 1016.4 |
| 20260503220349 | 67 | 37 | 7.0 | 8.7 | 0.00 | 0.00 | 0.00 | 85 | 1015.9 |
| 20260503213349 | 68 | 30 | 6.1 | 10.4 | 0.00 | 0.00 | 0.00 | 82 | 1015.4 |
| 20260503210349 | 67 | 31 | 6.1 | 8.7 | 0.00 | 0.00 | 0.00 | 83 | 1015.1 |
| 20260503203349 | 67 | 54 | 4.3 | 6.1 | 0.00 | 0.00 | 0.00 | 83 | 1015.1 |
| 20260503200349 | 67 | 40 | 2.6 | 5.2 | 0.00 | 0.00 | 0.00 | 83 | 1015.0 |
| 20260503193349 | 67 | 56 | 4.3 | 7.8 | 0.00 | 0.00 | 0.00 | 85 | 1015.1 |
| 20260503190349 | 67 | 54 | 5.2 | 6.1 | 0.00 | 0.00 | 0.00 | 85 | 1015.3 |
| 20260503183348 | 67 | 26 | 0.9 | 1.7 | 0.00 | 0.00 | 0.00 | 84 | 1015.5 |
| 20260503180348 | 67 | 332 | 2.6 | 4.3 | 0.00 | 0.00 | 0.00 | 82 | 1015.5 |
| 20260503173345 | 66 | 83 | 0.0 | 0.0 | 0.00 | 0.00 | 0.00 | 84 | 1015.5 |
| 20260503170350 | 67 | 35 | 4.3 | 10.4 | 0.00 | 0.00 | 0.00 | 84 | 1015.2 |
| 20260503150350 | 67 | 8 | 4.3 | 7.0 | 0.00 | 0.00 | 0.00 | 86 | 1016.1 |
| 20260503130349 | 69 | 312 | 6.1 | 10.4 | 0.00 | 0.00 | 0.00 | 81 | 1016.6 |